When you browse on this site, cookies collect data to enhance your experience and personalize the content and advertising you see.
Visit our Privacy Policy to learn more. By continuing to use the site, you agree to this use of cookies and data.
  • In Germany
  • List of Countries
  • For 7 days
  • Water Temperature
  • Weather Map
  • Weather Widgets
  • user-avatar
    Login

    Hourly Weather Djelfa

    Today, 9 December, Monday

    Time Temperature Precipitation Wind Pressure Humidity
    00:00 +4°C° 0 mm 8 mps 666 mmHg 93%
    01:00 +2°C° 0 mm 8 mps 666 mmHg 93%
    02:00 +3°C° 0 mm 7 mps 666 mmHg 94%
    03:00 +2°C° 0 mm 6 mps 665 mmHg 95%
    04:00 +2°C° 0 mm 7 mps 666 mmHg 94%
    05:00 +1°C° 0 mm 8 mps 666 mmHg 93%
    06:00 +1°C° 0 mm 8 mps 667 mmHg 93%
    07:00 +2°C° 0 mm 9 mps 667 mmHg 89%
    08:00 +3°C° 0 mm 9 mps 667 mmHg 84%
    09:00 +5°C° 0 mm 9 mps 667 mmHg 79%
    10:00 +5°C° 0 mm 9 mps 667 mmHg 79%
    11:00 +6°C° 0 mm 9 mps 667 mmHg 79%
    12:00 +6°C° 0 mm 10 mps 667 mmHg 80%
    13:00 +7°C° 0 mm 10 mps 667 mmHg 77%
    14:00 +7°C° 0 mm 10 mps 667 mmHg 74%
    15:00 +8°C° 0 mm 10 mps 667 mmHg 71%
    16:00 +7°C° 0 mm 10 mps 667 mmHg 77%
    17:00 +6°C° 0 mm 9 mps 667 mmHg 83%
    18:00 +5°C° 0 mm 9 mps 667 mmHg 88%
    19:00 +5°C° 0 mm 9 mps 667 mmHg 90%
    20:00 +5°C° 0 mm 9 mps 668 mmHg 92%
    21:00 +3°C° 0 mm 10 mps 668 mmHg 93%
    22:00 +3°C° 0 mm 9 mps 668 mmHg 93%
    23:00 +3°C° 0 mm 9 mps 668 mmHg 93%

    Tomorrow, 10 December, Tuesday

    Time Temperature Precipitation Wind Pressure Humidity
    00:00 +3°C° 0 mm 9 mps 668 mmHg 92%
    01:00 +2°C° 0 mm 9 mps 667 mmHg 93%
    02:00 +2°C° 0 mm 9 mps 667 mmHg 93%
    03:00 +2°C° 0 mm 9 mps 666 mmHg 94%
    04:00 +2°C° 0 mm 9 mps 666 mmHg 94%
    05:00 +1°C° 0 mm 10 mps 667 mmHg 93%
    06:00 +1°C° 0 mm 10 mps 667 mmHg 93%
    07:00 +2°C° 0 mm 10 mps 667 mmHg 89%
    08:00 +2°C° 0 mm 11 mps 667 mmHg 84%
    09:00 +3°C° 0 mm 12 mps 667 mmHg 80%
    10:00 +4°C° 0 mm 12 mps 667 mmHg 70%
    11:00 +5°C° 0 mm 12 mps 667 mmHg 60%
    12:00 +8°C° 0 mm 12 mps 667 mmHg 50%
    13:00 +7°C° 0 mm 12 mps 666 mmHg 50%
    14:00 +7°C° 0 mm 11 mps 666 mmHg 51%
    15:00 +7°C° 0 mm 11 mps 666 mmHg 51%
    16:00 +6°C° 0 mm 10 mps 666 mmHg 57%
    17:00 +5°C° 0 mm 9 mps 666 mmHg 63%
    18:00 +4°C° 0 mm 8 mps 666 mmHg 70%
    19:00 +4°C° 0 mm 8 mps 666 mmHg 75%
    20:00 +4°C° 0 mm 8 mps 666 mmHg 80%
    21:00 +2°C° 0 mm 8 mps 666 mmHg 85%
    22:00 +2°C° 0 mm 8 mps 666 mmHg 87%
    23:00 +3°C° 0 mm 7 mps 666 mmHg 88%

    Day after tomorrow, 11 December, Wednesday

    Time Temperature Precipitation Wind Pressure Humidity
    00:00 +3°C° 0 mm 7 mps 666 mmHg 90%
    01:00 +2°C° 0 mm 7 mps 666 mmHg 90%
    02:00 +2°C° 0 mm 6 mps 666 mmHg 91%
    03:00 +2°C° 0 mm 5 mps 665 mmHg 91%
    04:00 +2°C° 0 mm 6 mps 665 mmHg 88%
    05:00 +2°C° 0 mm 6 mps 665 mmHg 86%
    06:00 +2°C° 0 mm 7 mps 665 mmHg 83%
    07:00 +3°C° 0 mm 7 mps 666 mmHg 73%
    08:00 +5°C° 0 mm 8 mps 666 mmHg 64%
    09:00 +6°C° 0 mm 8 mps 667 mmHg 55%
    10:00 +7°C° 0 mm 8 mps 667 mmHg 51%
    11:00 +9°C° 0 mm 8 mps 667 mmHg 47%
    12:00 +10°C° 0 mm 8 mps 666 mmHg 43%
    13:00 +10°C° 0 mm 8 mps 666 mmHg 41%
    14:00 +10°C° 0 mm 8 mps 666 mmHg 39%
    15:00 +11°C° 0 mm 8 mps 665 mmHg 37%
    16:00 +9°C° 0 mm 8 mps 665 mmHg 45%
    17:00 +8°C° 0 mm 7 mps 665 mmHg 52%
    18:00 +6°C° 0 mm 7 mps 665 mmHg 60%
    19:00 +6°C° 0 mm 7 mps 665 mmHg 65%
    20:00 +5°C° 0 mm 8 mps 665 mmHg 70%
    21:00 +5°C° 0 mm 8 mps 665 mmHg 76%
    22:00 +3°C° 0 mm 9 mps 665 mmHg 79%
    23:00 +3°C° 0 mm 9 mps 665 mmHg 83%

    12 December, Thursday

    Time Temperature Precipitation Wind Pressure Humidity
    00:00 +2°C° 0 mm 9 mps 665 mmHg 87%
    01:00 +2°C° 0 mm 9 mps 665 mmHg 89%
    02:00 +2°C° 0 mm 10 mps 665 mmHg 91%
    03:00 +2°C° 0 mm 10 mps 665 mmHg 94%
    04:00 +2°C° 0 mm 9 mps 665 mmHg 94%
    05:00 +2°C° 0 mm 9 mps 665 mmHg 94%
    06:00 +2°C° 0 mm 9 mps 665 mmHg 95%
    07:00 +2°C° 0 mm 9 mps 666 mmHg 93%
    08:00 +2°C° 0 mm 9 mps 666 mmHg 91%
    09:00 +4°C° 0 mm 8 mps 666 mmHg 88%
    10:00 +5°C° 0 mm 9 mps 666 mmHg 79%
    11:00 +6°C° 0 mm 9 mps 666 mmHg 70%
    12:00 +7°C° 0 mm 9 mps 666 mmHg 61%
    13:00 +7°C° 0 mm 9 mps 666 mmHg 61%
    14:00 +7°C° 0 mm 9 mps 666 mmHg 60%
    15:00 +7°C° 0 mm 10 mps 665 mmHg 60%
    16:00 +6°C° 0 mm 9 mps 666 mmHg 64%
    17:00 +6°C° 0 mm 8 mps 666 mmHg 69%
    18:00 +5°C° 0 mm 7 mps 666 mmHg 73%
    19:00 +5°C° 0 mm 7 mps 666 mmHg 77%
    20:00 +4°C° 0 mm 7 mps 666 mmHg 81%
    21:00 +2°C° 0 mm 8 mps 666 mmHg 85%
    22:00 +2°C° 0 mm 8 mps 666 mmHg 84%
    23:00 +2°C° 0 mm 7 mps 666 mmHg 82%

    13 December, Friday

    Time Temperature Precipitation Wind Pressure Humidity
    00:00 +2°C° 0 mm 7 mps 665 mmHg 80%
    01:00 +1°C° 0 mm 8 mps 665 mmHg 82%
    02:00 0°C° 0 mm 8 mps 665 mmHg 84%
    03:00 0°C° 0 mm 9 mps 665 mmHg 86%
    04:00 +1°C° 0 mm 9 mps 665 mmHg 86%
    05:00 +1°C° 0 mm 9 mps 665 mmHg 86%
    06:00 +1°C° 0 mm 9 mps 665 mmHg 86%
    07:00 +1°C° 0 mm 9 mps 665 mmHg 83%
    08:00 +2°C° 0 mm 9 mps 666 mmHg 81%
    09:00 +2°C° 0 mm 10 mps 666 mmHg 78%
    10:00 +5°C° 0 mm 10 mps 666 mmHg 74%
    11:00 +6°C° 0 mm 10 mps 666 mmHg 70%
    12:00 +8°C° 0 mm 11 mps 666 mmHg 66%
    13:00 +8°C° 0 mm 10 mps 665 mmHg 66%
    14:00 +8°C° 0 mm 10 mps 665 mmHg 65%
    15:00 +8°C° 0 mm 10 mps 665 mmHg 65%
    16:00 +7°C° 0 mm 9 mps 665 mmHg 70%
    17:00 +6°C° 0 mm 9 mps 665 mmHg 75%
    18:00 +5°C° 0 mm 8 mps 665 mmHg 80%
    19:00 +5°C° 0 mm 9 mps 665 mmHg 83%
    20:00 +5°C° 0 mm 9 mps 665 mmHg 87%
    21:00 +3°C° 0 mm 10 mps 666 mmHg 90%
    22:00 +3°C° 0 mm 10 mps 666 mmHg 89%
    23:00 +3°C° 0 mm 11 mps 666 mmHg 89%

    14 December, Saturday

    Time Temperature Precipitation Wind Pressure Humidity
    00:00 +3°C° 0 mm 11 mps 666 mmHg 88%
    01:00 +3°C° 0 mm 10 mps 665 mmHg 89%
    02:00 +2°C° 0 mm 9 mps 665 mmHg 89%
    03:00 +2°C° 0 mm 9 mps 665 mmHg 90%
    04:00 +2°C° 0 mm 8 mps 665 mmHg 88%
    05:00 +2°C° 0 mm 8 mps 665 mmHg 86%
    06:00 +4°C° 0 mm 8 mps 665 mmHg 85%
    07:00 +5°C° 0 mm 8 mps 666 mmHg 78%
    08:00 +6°C° 0 mm 8 mps 666 mmHg 71%
    09:00 +9°C° 0 mm 8 mps 667 mmHg 64%
    10:00 +10°C° 0 mm 7 mps 667 mmHg 59%
    11:00 +11°C° 0 mm 7 mps 667 mmHg 54%
    12:00 +14°C° 0 mm 6 mps 667 mmHg 49%
    13:00 +14°C° 0 mm 5 mps 667 mmHg 49%
    14:00 +14°C° 0 mm 5 mps 667 mmHg 48%
    15:00 +14°C° 0 mm 4 mps 666 mmHg 48%
    16:00 +13°C° 0 mm 3 mps 666 mmHg 53%
    17:00 +12°C° 0 mm 3 mps 666 mmHg 57%
    18:00 +10°C° 0 mm 2 mps 666 mmHg 62%
    19:00 +10°C° 0 mm 2 mps 666 mmHg 61%
    20:00 +10°C° 0 mm 2 mps 666 mmHg 61%
    21:00 +10°C° 0 mm 2 mps 667 mmHg 60%
    22:00 +10°C° 0 mm 2 mps 666 mmHg 60%
    23:00 +10°C° 0 mm 2 mps 666 mmHg 60%
    Show more